Weather History for KEVV - August, 2013

Change the Weather History Date:

Friday, August 30, 2013

  Actual Average Record
Temperature  
Mean Temperature 84 °F 75 °F  
Max Temperature 96 °F 87 °F 99 °F (1951)
Min Temperature 72 °F 63 °F 44 °F (1986)
Degree Days  
Heating Degree Days 0 0  
Month to date heating degree days 0 0  
Since 1 June heating degree days 1 6  
Since 1 July heating degree days 0 0  
Cooling Degree Days 19 10  
Month to date cooling degree days 356 351  
Year to date cooling degree days 1174 1187  
Since 1 June cooling degree days 1003 1052  
Growing Degree Days 34 (Base 50)    
Moisture  
Dew Point 71 °F    
Average Humidity 65    
Maximum Humidity 87    
Minimum Humidity 42    
Precipitation  
Precipitation 0.00 in 0.09 in 3.03 in (2005)
Month to date precipitation 1.36 2.88  
Year to date precipitation 35.05 30.82  
Snow  
Snow 0.00 in 0.00 in 0.00 in (2002)
Month to date snowfall 0.0 0.0  
Since 1 June snowfall 0.0 0.0  
Since 1 July snowfall 0.0 0.0  
Snow Depth 0.00 in    
Sea Level Pressure  
Sea Level Pressure 29.92 in    
Wind  
Wind Speed 4 mph (WSW)    
Max Wind Speed 13 mph    
Max Gust Speed 16 mph    
Visibility 10 miles    
Events      
T = Trace of Precipitation, MM = Missing Value Source: NWS Daily Summary

Daily Weather History Graph

Daily Weather History Graph

Search for Another Location

Airport or City:

Trip Planner

Search our weather history database for the weather conditions in past years. The results will help you decide how hot, cold, wet, or windy it might be!

Date:

Astronomy

Aug. 30, 2013 Rise Set
Actual Time 6:18 AM CDT 7:22 PM CDT
Civil Twilight 5:51 AM CDT 7:49 PM CDT
Nautical Twilight 5:19 AM CDT 8:21 PM CDT
Astronomical Twilight 4:45 AM CDT 8:54 PM CDT
Moon 12:59 AM CDT (8/30) 3:34 PM CDT (8/30)
Length of Visible Light 13h 57m
Length of Day
13h 03m
Waning Crescent, 29% of the Moon is Illuminated
Aug 30
Waning Crescent
Sep 5
New
Sep 12
First Quarter
Sep 19
Full
Sep 26
Last Quarter

Hourly Weather History & Observations

Time (CDT) Temp. Heat Index Dew Point Humidity Pressure Visibility Wind Dir Wind Speed Gust Speed Precip Events Conditions
12:54 AM 77.0 °F - 70.0 °F 79% 29.96 in 10.0 mi Calm Calm - N/A   Clear
1:54 AM 75.9 °F - 70.0 °F 82% 29.96 in 10.0 mi NE 3.5 mph - N/A   Clear
2:54 AM 75.0 °F - 69.1 °F 82% 29.95 in 10.0 mi Calm Calm - N/A   Clear
3:54 AM 73.9 °F - 69.1 °F 85% 29.96 in 10.0 mi Calm Calm - N/A   Clear
4:54 AM 73.9 °F - 69.1 °F 85% 29.96 in 9.0 mi Calm Calm - N/A   Mostly Cloudy
5:54 AM 73.0 °F - 69.1 °F 87% 29.96 in 9.0 mi Calm Calm - N/A   Clear
6:54 AM 73.0 °F - 69.1 °F 87% 29.97 in 6.0 mi Calm Calm - N/A   Clear
7:54 AM 77.0 °F - 71.1 °F 82% 29.97 in 7.0 mi Calm Calm - N/A   Clear
8:54 AM 82.0 °F 86.7 °F 72.0 °F 71% 29.96 in 9.0 mi Calm Calm - N/A   Clear
9:54 AM 87.1 °F 95.4 °F 73.9 °F 65% 29.96 in 10.0 mi West 4.6 mph - N/A   Clear
10:54 AM 89.1 °F 98.0 °F 73.9 °F 61% 29.96 in 10.0 mi WSW 4.6 mph - N/A   Clear
11:54 AM 91.9 °F 100.7 °F 73.0 °F 54% 29.94 in 10.0 mi Variable 4.6 mph - N/A   Clear
12:54 PM 93.9 °F 103.4 °F 73.0 °F 51% 29.92 in 10.0 mi Calm Calm - N/A   Clear
1:54 PM 95.0 °F 101.3 °F 70.0 °F 44% 29.91 in 10.0 mi West 10.4 mph - N/A   Partly Cloudy
2:54 PM 93.0 °F 99.0 °F 70.0 °F 47% 29.89 in 10.0 mi WNW 5.8 mph - N/A   Partly Cloudy
3:54 PM 96.1 °F 101.6 °F 69.1 °F 41% 29.88 in 10.0 mi West 9.2 mph - N/A   Clear
4:54 PM 93.0 °F 99.0 °F 70.0 °F 47% 29.87 in 10.0 mi West 8.1 mph - N/A   Scattered Clouds
5:54 PM 93.0 °F 100.7 °F 72.0 °F 50% 29.86 in 10.0 mi Calm Calm - N/A   Clear
6:54 PM 89.1 °F 97.0 °F 73.0 °F 59% 29.86 in 10.0 mi WSW 8.1 mph - N/A   Partly Cloudy
7:54 PM 84.9 °F 90.1 °F 71.1 °F 63% 29.86 in 10.0 mi SW 5.8 mph - N/A   Clear
8:54 PM 84.0 °F 89.0 °F 71.1 °F 65% 29.88 in 10.0 mi WSW 5.8 mph - N/A   Clear
9:54 PM 81.0 °F 84.4 °F 70.0 °F 69% 29.87 in 10.0 mi SW 3.5 mph - N/A   Clear
10:54 PM 79.0 °F - 70.0 °F 74% 29.86 in 10.0 mi SW 5.8 mph - N/A   Clear
11:54 PM 78.1 °F - 71.1 °F 79% 29.86 in 10.0 mi SW 4.6 mph - N/A   Clear